Location: Spaichingen
(48.0400°N, 8.4300°E)
Time: 22:03:38
(UTC+01:00)

ISS - Pass Details

Date: 01 February 2019
Orbit: 403 x 411 km, 51.6° (Epoch: 23 February)

Event Time Altitude Azimuth Distance (km) Brightness Sun altitude
Rises 18:52:46 0° 283° (WNW) 2,334 1.4 -14.7°
Reaches altitude 10° 18:54:55 10° 290° (WNW) 1,475 0.0 -15.1°
Maximum altitude 18:58:05 43° 4° (N) 590 -3.2 -15.6°
Enters shadow 18:59:02 33° 48° (NE) 712 -3.1 -15.7°
